Wind_Speed
5 7 8 9 9 9 8 9 9 8 9 10 11 11 12 12 13 15 16 17 18 18 18 19 20 21 22 23 25 27 29 30 31 30 28 28 29 29 29 30 31 31
4 3 4 5 6 6 6 7 8 8 8 8 10 11 13 14 15 17 19 20 21 21 21 21 22 23 24 27 29 30 31 32 32 30 28 28 28 27 27 27 27 28
9 7 6 4 4 4 4 6 7 8 8 9 11 12 13 15 16 17 17 19 20 21 22 21 22 22 24 26 27 25 24 25 26 25 25 25 25 24 25 25 25 27
13 11 9 7 6 6 5 5 6 6 6 7 8 9 10 12 14 14 14 16 19 19 19 19 19 20 20 20 20 19 18 18 19 19 20 21 21 22 23 23 23 24
15 14 13 11 9 9 8 8 8 8 7 6 6 7 8 9 11 12 13 14 16 16 16 16 17 18 17 17 18 18 18 18 17 17 18 19 20 21 22 22 22 22
15 15 15 13 12 12 11 11 11 11 9 8 7 7 7 8 9 11 12 13 14 15 14 15 17 18 17 17 17 18 18 18 19 18 18 19 21 22 21 20 21 22
14 14 15 14 13 13 13 13 13 12 11 9 7 6 6 7 8 9 12 14 15 16 15 14 16 18 18 18 17 17 17 18 19 20 19 18 19 20 19 18 19 20
12 13 15 14 14 15 15 14 15 14 12 10 8 7 7 7 7 7 10 12 14 16 16 16 17 18 18 18 18 18 18 18 19 20 20 18 17 18 17 16 18 19
10 13 16 17 16 16 16 15 15 15 14 12 11 10 9 9 9 10 11 11 13 15 17 17 18 19 19 18 18 19 19 18 18 19 20 19 17 16 15 15 17 17
15 16 19 20 18 17 16 16 16 15 15 15 14 12 10 10 11 11 11 12 13 15 17 18 20 21 21 20 19 20 21 19 17 17 18 18 17 15 14 14 14 14
25 24 25 25 23 20 17 16 16 15 15 15 15 14 13 13 12 12 12 13 14 16 18 19 21 21 22 22 22 22 22 20 18 16 16 17 17 15 13 12 13 13
29 28 28 28 28 26 24 22 21 20 19 17 16 16 15 15 15 15 16 16 17 18 19 20 20 21 21 23 24 24 22 21 19 18 16 15 15 15 13 11 12 13
28 28 28 28 27 28 27 27 27 26 25 23 21 20 20 20 19 18 19 19 19 20 21 21 21 21 20 21 22 23 23 22 21 20 19 16 14 14 13 11 10 11
27 26 26 26 25 26 26 27 27 27 27 26 25 25 25 25 24 22 22 20 20 21 22 22 22 23 23 23 22 22 23 23 22 21 21 19 16 14 12 10 10 10
24 23 23 22 22 23 24 26 27 27 27 27 27 27 28 29 28 27 26 24 23 23 22 23 23 25 27 27 26 24 23 23 22 20 20 19 18 16 12 9 8 9
20 20 20 20 20 21 22 24 25 27 28 29 29 28 28 29 30 30 30 29 28 27 26 25 25 26 27 27 27 26 24 22 20 19 18 16 16 16 14 10 9 8
19 20 20 20 19 19 21 22 24 26 28 29 29 28 28 28 29 30 31 31 31 30 30 29 29 29 28 26 26 26 25 22 19 17 16 15 15 15 15 13 11 10
22 24 26 25 22 19 20 21 23 25 28 29 29 28 28 28 28 29 31 32 32 32 32 31 31 31 30 28 26 26 25 24 20 17 15 14 13 13 13 13 13 12
25 28 31 31 29 25 23 23 25 27 28 28 28 28 29 30 30 30 31 31 32 32 32 33 32 32 32 31 29 26 25 24 22 19 16 14 12 12 11 12 13 14
28 30 31 33 32 31 29 28 29 29 29 28 27 28 29 31 32 32 31 31 31 31 32 33 33 34 33 33 32 30 26 24 23 21 19 17 15 13 12 12 12 14
30 31 32 33 33 33 33 33 33 32 31 29 28 28 28 30 32 32 31 30 29 30 31 32 33 34 34 34 34 33 29 25 24 23 22 20 18 17 15 14 14 14
29 30 31 32 33 34 35 35 35 35 34 32 29 29 29 30 32 33 32 30 28 28 30 31 31 33 35 35 35 35 33 29 26 24 24 24 23 21 19 18 17 16
28 29 30 31 32 34 35 36 36 36 36 35 33 32 31 32 33 33 33 31 28 27 27 29 30 31 33 35 36 36 36 34 31 28 26 25 25 24 23 22 20 19
28 29 30 30 32 33 34 35 35 36 36 36 36 35 34 34 35 34 34 33 30 27 24 25 27 29 30 33 35 37 38 38 37 34 31 29 27 26 25 24 24 23
27 28 29 29 30 31 32 32 33 34 35 36 37 36 35 35 36 37 37 36 33 28 23 22 24 26 28 31 33 35 37 38 38 38 36 34 31 29 27 25 25 26
27 27 28 28 28 29 30 31 32 33 34 35 36 36 36 36 37 38 39 38 36 32 25 20 22 24 26 28 31 33 34 36 37 39 38 36 34 32 31 29 27 28
Wind_Direction
250 254 260 265 274 283 286 289 293 296 298 299 298 297 297 297 296 293 292 291 291 292 295 296 297 298 297 297 296 294 292 291 291 293 294 293 291 290 289 285 279 273
37 356 323 306 299 296 285 284 289 291 294 295 293 292 292 293 294 294 293 291 290 290 289 292 297 300 299 296 294 292 292 291 290 291 292 291 289 288 287 284 279 273
40 32 20 9 346 324 302 289 288 288 288 287 284 283 283 287 291 293 295 295 293 291 289 292 297 300 300 298 296 295 297 297 296 296 294 290 288 287 285 283 279 273
36 35 36 37 29 19 8 340 325 322 317 309 305 303 299 298 300 300 298 296 296 296 297 300 305 307 308 309 310 310 309 308 306 305 302 298 295 291 287 282 278 275
38 38 42 46 49 47 39 24 14 12 5 355 346 336 325 318 319 319 310 304 305 307 309 314 317 317 318 322 324 321 316 314 312 309 306 306 303 298 292 284 276 276
43 40 40 47 61 61 51 42 35 30 24 18 7 354 341 326 322 318 312 314 318 316 317 321 320 319 319 322 324 322 322 321 318 314 307 303 301 297 294 287 277 274
46 39 38 47 67 69 59 51 45 40 35 26 13 6 353 333 324 317 314 320 323 320 318 318 316 315 317 319 320 319 321 323 321 319 313 308 305 301 297 292 284 278
45 38 40 53 72 75 64 55 50 48 45 38 28 22 9 349 342 336 329 328 325 319 318 316 315 315 316 318 321 321 321 321 321 321 319 316 311 307 301 292 286 281
44 43 48 57 68 73 66 58 52 49 47 46 42 32 19 8 360 353 347 341 331 323 321 319 318 318 319 321 324 326 324 321 319 319 320 320 314 306 300 290 280 276
52 51 51 51 55 62 64 58 51 45 42 42 41 36 27 19 11 2 354 346 340 336 333 330 326 322 323 324 326 328 327 323 320 315 314 318 316 307 301 296 287 279
55 54 52 50 50 53 56 53 47 40 35 31 30 31 29 24 20 13 6 0 357 355 351 345 338 330 325 324 325 326 326 325 325 320 312 309 310 307 303 301 297 289
56 54 54 54 52 52 51 48 44 37 31 26 20 18 19 19 19 17 16 15 12 8 4 358 350 341 331 325 324 325 324 326 328 328 321 310 304 303 301 299 299 294
56 55 54 53 52 51 49 46 44 39 35 31 23 17 17 17 16 15 16 17 15 12 9 5 360 352 342 332 327 327 329 329 329 329 327 321 311 305 298 295 299 299
58 56 55 54 51 49 46 42 40 37 36 34 29 26 24 24 23 22 21 20 16 14 11 7 4 1 357 349 340 336 335 334 333 330 328 324 319 312 298 288 294 302
61 58 55 52 50 48 45 40 36 33 31 31 31 32 32 31 29 28 27 26 22 18 14 10 8 8 8 2 354 347 341 337 336 332 328 324 320 316 305 288 285 299
59 53 49 47 47 48 46 41 36 32 30 29 31 36 37 34 30 28 27 26 24 23 19 16 15 14 12 7 2 357 350 344 338 331 326 322 318 316 313 306 292 286
53 50 49 50 50 49 47 43 38 33 30 29 32 37 37 34 30 27 25 24 23 22 21 21 21 18 13 9 6 3 358 352 344 334 327 321 316 314 312 311 300 284
58 59 57 56 55 51 47 44 39 34 31 30 32 34 34 31 28 25 24 23 22 21 21 21 21 19 15 12 9 7 4 1 353 342 332 325 319 314 307 303 298 287
63 63 57 54 54 53 50 46 41 36 33 32 32 33 31 29 27 26 25 23 22 21 21 20 20 19 17 15 13 10 8 7 4 356 347 339 331 320 307 298 292 285
63 59 54 51 51 52 51 48 44 40 38 36 35 33 30 27 26 25 25 23 22 21 20 19 20 18 17 16 14 12 10 10 11 9 4 355 347 336 323 311 300 291
60 56 53 50 48 48 47 45 43 42 41 39 37 34 32 29 27 26 25 23 22 20 19 19 19 19 17 16 14 13 13 12 12 14 14 9 1 351 342 331 320 310
57 54 52 48 45 43 42 41 40 40 41 40 39 37 35 33 31 29 27 24 21 19 18 17 18 19 17 17 16 14 13 14 13 14 16 17 13 6 359 350 339 330
56 53 50 47 43 41 40 39 38 37 37 37 36 36 36 34 32 30 28 25 21 16 15 16 17 18 17 17 17 16 14 13 13 12 13 16 17 15 12 7 1 352
55 52 48 45 42 40 38 37 36 35 34 34 33 34 34 33 30 28 26 26 23 18 15 14 16 17 16 16 16 16 16 14 12 11 11 10 11 13 14 14 12 9
53 50 46 43 40 38 37 36 35 34 33 32 31 32 33 32 29 26 25 25 25 22 17 15 17 17 15 14 14 14 14 14 12 11 11 9 7 6 8 10 12 12
51 47 43 41 38 36 35 35 34 32 31 31 30 30 31 31 29 26 25 26 26 26 22 18 18 18 15 13 12 11 12 13 13 13 12 11 9 6 4 5 7 8
Height
1538 1537 1536 1536 1535 1534 1533 1533 1532 1531 1531 1530 1530 1529 1529 1528 1527 1526 1525 1524 1523 1521 1520 1519 1518 1516 1515 1513 1512 1510 1508 1506 1504 1503 1503 1501 1500 1499 1497 1496 1495 1494
1537 1536 1536 1535 1534 1533 1532 1531 1530 1530 1530 1529 1528 1527 1526 1526 1525 1524 1522 1521 1520 1518 1517 1516 1515 1513 1512 1510 1508 1506 1503 1502 1500 1500 1499 1497 1496 1495 1493 1492 1490 1490
1537 1536 1535 1534 1533 1532 1531 1530 1529 1529 1528 1527 1526 1525 1524 1523 1522 1521 1520 1518 1517 1516 1515 1514 1512 1511 1509 1507 1505 1502 1500 1498 1497 1496 1495 1493 1492 1491 1489 1488 1486 1486
1537 1536 1534 1533 1532 1531 1530 1529 1528 1528 1527 1526 1525 1524 1523 1522 1520 1519 1518 1516 1515 1514 1513 1512 1510 1509 1507 1505 1502 1500 1498 1496 1494 1493 1492 1490 1489 1487 1485 1484 1483 1482
1537 1535 1534 1532 1531 1530 1529 1529 1528 1527 1526 1526 1525 1524 1522 1521 1520 1518 1517 1515 1514 1513 1511 1510 1509 1507 1505 1503 1500 1498 1496 1494 1492 1491 1489 1488 1486 1484 1482 1480 1479 1478
1537 1536 1534 1533 1531 1530 1530 1529 1528 1528 1527 1526 1525 1524 1522 1521 1520 1518 1516 1515 1514 1512 1510 1509 1507 1505 1503 1501 1499 1497 1494 1492 1490 1489 1487 1485 1483 1481 1480 1478 1476 1475
1537 1536 1535 1533 1532 1531 1530 1530 1529 1528 1527 1526 1525 1523 1522 1520 1519 1517 1516 1515 1513 1511 1509 1508 1506 1504 1501 1499 1497 1495 1493 1491 1489 1487 1485 1483 1480 1479 1477 1476 1474 1473
1538 1537 1535 1534 1532 1531 1531 1530 1529 1528 1527 1526 1524 1523 1521 1520 1519 1517 1515 1514 1512 1510 1509 1507 1505 1502 1500 1498 1495 1493 1491 1489 1487 1485 1483 1481 1478 1477 1475 1474 1473 1472
1538 1537 1535 1533 1532 1531 1531 1530 1530 1529 1527 1526 1524 1523 1521 1519 1518 1516 1515 1513 1511 1509 1507 1505 1503 1501 1498 1496 1494 1492 1490 1488 1486 1484 1482 1479 1477 1475 1474 1473 1471 1470
1538 1537 1535 1533 1532 1532 1531 1531 1530 1529 1527 1526 1524 1523 1521 1519 1518 1516 1514 1512 1510 1508 1506 1504 1502 1499 1497 1495 1493 1491 1488 1486 1484 1482 1480 1478 1476 1474 1473 1471 1470 1469
1538 1537 1535 1534 1533 1533 1532 1531 1530 1529 1527 1526 1524 1522 1521 1519 1517 1515 1513 1511 1509 1507 1505 1502 1500 1498 1495 1493 1491 1490 1487 1485 1483 1481 1479 1477 1475 1474 1472 1470 1469 1468
1539 1537 1536 1535 1534 1534 1533 1532 1530 1529 1527 1526 1524 1522 1520 1518 1516 1514 1512 1511 1509 1506 1504 1502 1499 1497 1494 1492 1490 1488 1486 1484 1481 1479 1478 1476 1474 1473 1471 1470 1468 1467
1539 1538 1537 1536 1536 1535 1534 1532 1531 1529 1528 1526 1524 1522 1520 1518 1516 1514 1512 1510 1508 1506 1503 1501 1498 1496 1493 1491 1488 1486 1484 1481 1479 1478 1476 1474 1473 1471 1470 1469 1467 1466
1540 1539 1538 1538 1537 1536 1534 1532 1531 1530 1528 1527 1524 1522 1520 1518 1516 1514 1512 1510 1508 1505 1503 1500 1497 1494 1491 1488 1486 1484 1482 1480 1478 1476 1474 1472 1471 1470 1468 1467 1466 1465
1542 1540 1540 1539 1538 1536 1534 1533 1531 1530 1529 1527 1525 1522 1520 1518 1516 1514 1512 1510 1507 1505 1503 1500 1497 1494 1491 1488 1485 1482 1480 1478 1476 1474 1472 1470 1469 1468 1467 1465 1464 1464
1543 1542 1541 1540 1538 1537 1535 1534 1532 1531 1529 1527 1525 1523 1521 1519 1517 1514 1512 1509 1507 1505 1502 1499 1497 1494 1492 1489 1486 1483 1480 1477 1475 1473 1471 1469 1467 1466 1465 1463 1462 1461
1544 1543 1542 1541 1539 1537 1536 1535 1533 1532 1530 1528 1526 1524 1521 1519 1517 1514 1512 1510 1507 1505 1502 1499 1497 1495 1493 1490 1486 1483 1480 1477 1474 1472 1470 1468 1466 1465 1463 1462 1461 1460
1546 1544 1543 1541 1539 1538 1537 1536 1534 1532 1530 1528 1526 1524 1522 1520 1517 1515 1512 1510 1508 1505 1503 1500 1498 1495 1493 1490 1486 1483 1480 1477 1474 1472 1469 1467 1465 1464 1462 1461 1460 1458
1547 1545 1543 1542 1541 1540 1539 1537 1535 1533 1531 1529 1527 1525 1523 1520 1518 1516 1513 1511 1508 1506 1503 1501 1498 1495 1493 1490 1487 1484 1481 1477 1474 1472 1469 1466 1464 1462 1461 1459 1458 1456
1547 1545 1544 1543 1542 1541 1540 1538 1536 1534 1532 1530 1528 1526 1524 1521 1519 1516 1514 1511 1509 1506 1504 1501 1498 1496 1493 1490 1487 1484 1481 1478 1475 1472 1469 1466 1464 1462 1459 1458 1456 1454
1548 1546 1545 1544 1543 1542 1540 1539 1537 1535 1533 1531 1529 1527 1525 1522 1520 1517 1515 1512 1510 1507 1505 1502 1499 1496 1494 1490 1488 1485 1481 1479 1475 1472 1469 1467 1464 1461 1459 1457 1455 1453
1549 1548 1546 1545 1544 1543 1541 1539 1538 1536 1534 1533 1531 1528 1526 1524 1521 1518 1515 1513 1510 1508 1505 1502 1500 1497 1494 1491 1488 1485 1481 1479 1476 1473 1470 1467 1464 1461 1459 1456 1454 1452
1550 1549 1547 1546 1545 1544 1542 1541 1539 1538 1536 1534 1532 1529 1527 1524 1522 1519 1516 1513 1510 1508 1505 1503 1500 1498 1495 1492 1489 1485 1482 1478 1476 1473 1470 1467 1464 1462 1459 1457 1454 1451
1551 1550 1548 1547 1546 1545 1544 1542 1541 1539 1537 1535 1533 1530 1528 1525 1523 1520 1517 1514 1511 1508 1506 1503 1501 1498 1496 1493 1490 1486 1483 1479 1476 1473 1470 1467 1464 1462 1460 1457 1454 1452
1552 1551 1550 1549 1548 1547 1546 1544 1543 1541 1539 1537 1534 1532 1529 1527 1524 1521 1518 1515 1512 1509 1506 1504 1502 1499 1497 1494 1491 1488 1484 1481 1477 1474 1470 1467 1464 1462 1459 1457 1454 1451
1553 1552 1551 1550 1550 1549 1547 1546 1544 1542 1541 1538 1536 1533 1531 1528 1525 1522 1519 1516 1513 1509 1507 1504 1502 1500 1498 1496 1493 1490 1486 1483 1479 1475 1471 1468 1465 1462 1459 1456 1453 1451